Regional Weather Roundup
Issued by NWS Goodland, KS

Home | Current Version | Previous Version | Graphics & Text | Print | Product List | Glossary Off
Versions: 1 2 3 4 5 6 7 8 9 10 11 12 13 14 15 16 17 18 19 20 21 22 23 24 25 26 27 28 29 30 31 32 33 34 35 36 37 38 39 40 41 42 43 44 45 46 47 48 49 50

000
ASUS43 KGLD 210759
RWRGLD

GOODLAND FORECAST AREA HOURLY WEATHER ROUNDUP
NATIONAL WEATHER SERVICE GOODLAND KS
100 AM MST TUE FEB 21 2017

...OFFICIAL OBSERVATIONS...

CITY           SKY/WX    TMP DP  RH WIND       PRES   REMARKS
GOODLAND KS    CLOUDY    41  14  33 SW10      30.00F
HILL CITY KS   CLOUDY    32  25  75 W7        30.01R
IMPERIAL NEB   CLOUDY    36  16  44 SW8       29.98F
MCCOOK NEB     CLOUDY    31  23  72 W6        29.98S
AKRON CO       CLOUDY    42  13  30 S15       29.98F
BURLINGTON CO  CLOUDY    39  13  34 SW13      30.03S
LIMON CO       CLOUDY    28  11  48 CALM      30.06S
$$

...UNOFFICIAL OBSERVATIONS...

CITY           SKY/WX    TMP DP  RH WIND       PRES   REMARKS
LENORA KS        N/A     41  32  70 SW5         N/A
NORTON KS      CLEAR     34  21  60 SW9       29.98R
SHARON SPRINGS   N/A     34  17  48 SW8         N/A
TRENTON NEB      N/A     40  32  73 W5          N/A
KIT CARSON CO    N/A     28  15  57 CALM        N/A
YUMA CO        FAIR      32  16  51 SW8       29.98F
$$



USA.gov is the U.S. government's official web portal to all federal, state and local government web resources and services.